Weather in Pavlovskiy

Russia / Perm Krai     57°50′30″N   54°50′07″E
temp.,
°C
wind,
m/s
gust,
m/s
humid.,
%
clouds,
%
prec.,
mm/h
press.,
hPa
HPBL,
m
3 march, wed
wed323:00−5ssw599698 0.4 995255
02:00−5sw3597100 0.6 994120
05:00−7w3597100 0.8 995102
08:00−9w379632 0.0 995126
11:00−6w469430 0.0 997243
14:00−2wsw359234 0.0 997437
17:00−2wsw359265 0.2 997473
20:00−5wnw2397100 0.3 99739
4 march, thu
thu423:00−6nw4994100 0.7 998493
02:00−10wnw489599 0.1 997204
05:00−12w489692 0.1 997179
08:00−14sw369781 0.0 997116
11:00−9sw489391 0.1 996383
14:00−7ssw5993100 0.1 995462
17:00−5ssw5992100 0.4 993622
20:00−5s41096100 0.4 991426
5 march, fri
fri523:00−6s2697100 0.9 991174
02:00−7w3696100 0.1 992175
05:00−9wnw239698 0.3 99550
08:00−11wnw349598 0.1 99783
11:00−8wnw239293 0.1 999251
14:00−6w2388100 0.1 1000528
17:00−6w3484100 0.3 1001746
20:00−12wnw359362 0.0 100291
6 march, sat
sat623:00−15nw359653 0.1 1004110
02:00−18wnw339621 0.0 100654
05:00−19wnw339723 0.0 100958
08:00−19w369588 0.0 1010142
11:00−16w359167 0.0 1010245
14:00−11sw34850 0.0 1009425
17:00−10ssw479045 0.1 1008612
20:00−12ssw489599 0.2 1008247
7 march, sun
sun723:00−13sw379699 0.5 1008206
02:00−16w3496100 0.1 1008103
05:00−21wnw239893 0.1 100929
08:00−24w23970 0.0 100921
11:00−18sw35934 0.0 1010232
14:00−13sw579091 0.1 1010599
17:00−12sw588895 0.2 1009791
20:00−14ssw51195100 0.1 1008355